Terminal Aerodrome Forecast
Issued by NWS Twin Cities, MN

Home | Current Version | Previous Version | Graphics & Text | Print | Product List | Glossary On
Versions: 1 2 3 4 5 6 7 8 9 10 11 12 13 14 15 16 17 18 19 20 21 22 23 24 25 26 27 28 29 30
006
FTUS43 KMPX 222109 AAA
TAFMSP
TAF AMD
KMSP 222109Z 2221/2324 19016G24KT P6SM FEW090
     FM230200 19012G18KT P6SM SKC
     FM230600 18012KT P6SM SKC
     FM231430 19014G21KT P6SM SCT250=

USA.gov is the U.S. government's official web portal to all federal, state and local government web resources and services.